Location: Prague
(50.0984°N, 14.4360°E)
Time: 18:44:12
(UTC+02:00)

ISS - Visible Passes

Search period start: 23 May 2019 00:00
Search period end: 02 June 2019 00:00
Orbit: 408 x 418 km, 51.6° (Epoch: 23 May)

Date Brightness Start Highest point End Pass type
(mag) Time Alt. Az. Time Alt. Az. Time Alt. Az.
23 May -3.7 00:18:58 10° WNW 00:22:20 76° NNE 00:23:42 33° E visible
23 May -1.5 01:55:44 10° W 01:56:29 15° W 01:56:29 15° W visible
23 May -3.7 21:52:40 10° WSW 21:56:01 84° NNW 21:59:23 10° ENE visible
23 May -3.5 23:29:30 10° WNW 23:32:50 67° N 23:35:34 15° E visible
24 May -2.7 01:06:14 10° WNW 01:08:22 34° W 01:08:22 34° W visible
24 May -3.4 22:40:00 10° W 22:43:20 64° N 22:46:41 10° E visible
25 May -3.9 00:16:45 10° WNW 00:20:06 74° SSW 00:20:20 69° SSE visible
25 May -3.4 21:50:29 10° W 21:53:49 67° N 21:57:10 10° ENE visible
25 May -3.8 23:27:16 10° WNW 23:30:38 86° NNE 23:32:21 27° ESE visible
26 May -1.6 01:04:09 10° W 01:05:10 17° W 01:05:10 17° W visible
26 May -3.6 22:37:47 10° WNW 22:41:07 73° N 22:44:24 11° E visible
27 May -3.0 00:14:32 10° W 00:17:12 38° SW 00:17:12 38° SW visible
27 May -3.4 21:48:15 10° W 21:51:36 66° N 21:54:56 10° E visible
27 May -3.7 23:24:59 10° WNW 23:28:18 59° SSW 23:29:16 39° SE visible
28 May -3.8 22:35:28 10° WNW 22:38:50 80° SSW 22:41:22 16° ESE visible
29 May -1.9 00:12:31 10° W 00:14:10 19° WSW 00:14:10 19° WSW visible
29 May -3.7 21:45:57 10° WNW 21:49:18 82° NNE 21:52:40 10° ESE visible
29 May -2.9 23:22:46 10° W 23:25:48 32° SSW 23:26:17 30° SSW visible
30 May -3.3 22:33:09 10° WNW 22:36:22 46° SSW 22:38:26 19° SE visible
31 May -3.7 21:43:35 10° WNW 21:46:54 65° SSW 21:50:13 10° ESE visible
31 May -1.8 23:20:56 10° W 23:23:06 16° SW 23:23:24 16° SW visible
01 Jun -2.3 22:30:59 10° W 22:33:45 24° SW 22:35:36 15° S visible
